Time,TemperatureF,DewpointF,PressureIn,WindDirection,WindDirectionDegrees,WindSpeedMPH,WindSpeedGustMPH,Humidity,HourlyPrecipIn,Conditions,Clouds,dailyrainin,SolarRadiationWatts/m^2,SoftwareType,DateUTC
2013-02-15 00:11:00,43.0,19.0,-100.00,ENE,61,6.0,16.0,38,0.00,,,0.00,0.000000,,2013-02-15 08:11:00,
2013-02-15 00:21:00,43.0,19.0,-100.00,ENE,61,6.0,16.0,38,0.00,,,0.00,0.000000,,2013-02-15 08:21:00,
2013-02-15 00:31:00,43.0,19.0,-100.00,ENE,61,6.0,16.0,38,0.00,,,0.00,0.000000,,2013-02-15 08:31:00,
2013-02-15 00:41:00,43.0,19.0,-100.00,ENE,61,6.0,16.0,38,0.00,,,0.00,0.000000,,2013-02-15 08:41:00,
2013-02-15 01:12:00,43.0,19.0,-100.00,NE,51,5.0,19.0,37,0.00,,,0.00,0.000000,,2013-02-15 09:12:00,
2013-02-15 01:21:00,43.0,19.0,-100.00,NE,51,5.0,19.0,37,0.00,,,0.00,0.000000,,2013-02-15 09:21:00,
2013-02-15 01:31:00,43.0,19.0,-100.00,NE,51,5.0,19.0,37,0.00,,,0.00,0.000000,,2013-02-15 09:31:00,
2013-02-15 01:41:00,43.0,19.0,-100.00,NE,51,5.0,19.0,37,0.00,,,0.00,0.000000,,2013-02-15 09:41:00,
2013-02-15 01:51:00,43.0,19.0,-100.00,NE,51,5.0,19.0,37,0.00,,,0.00,0.000000,,2013-02-15 09:51:00,
2013-02-15 02:21:00,42.0,18.0,-100.00,NE,55,5.0,15.0,37,0.00,,,0.00,0.000000,,2013-02-15 10:21:00,
2013-02-15 02:31:00,42.0,18.0,-100.00,NE,55,5.0,15.0,37,0.00,,,0.00,0.000000,,2013-02-15 10:31:00,
2013-02-15 02:41:00,42.0,18.0,-100.00,NE,55,5.0,15.0,37,0.00,,,0.00,0.000000,,2013-02-15 10:41:00,
2013-02-15 02:51:00,42.0,18.0,-100.00,NE,55,5.0,15.0,37,0.00,,,0.00,0.000000,,2013-02-15 10:51:00,
2013-02-15 02:52:00,42.0,17.0,-100.00,ENE,57,8.0,20.0,36,0.00,,,0.00,0.000000,,2013-02-15 10:52:00,
2013-02-15 03:11:00,42.0,17.0,-100.00,ENE,57,8.0,20.0,36,0.00,,,0.00,0.000000,,2013-02-15 11:11:00,
2013-02-15 03:22:00,42.0,17.0,-100.00,ENE,57,8.0,20.0,36,0.00,,,0.00,0.000000,,2013-02-15 11:22:00,
2013-02-15 03:31:00,42.0,17.0,-100.00,ENE,57,8.0,20.0,36,0.00,,,0.00,0.000000,,2013-02-15 11:31:00,
2013-02-15 03:42:00,42.0,17.0,-100.00,ENE,57,8.0,20.0,36,0.00,,,0.00,0.000000,,2013-02-15 11:42:00,
2013-02-15 03:52:00,42.0,19.0,-100.00,NE,52,7.0,23.0,39,0.00,,,0.00,0.000000,,2013-02-15 11:52:00,
2013-02-15 04:21:00,42.0,19.0,-100.00,NE,52,7.0,23.0,39,0.00,,,0.00,0.000000,,2013-02-15 12:21:00,
2013-02-15 04:32:00,42.0,19.0,-100.00,NE,52,7.0,23.0,39,0.00,,,0.00,0.000000,,2013-02-15 12:32:00,
2013-02-15 04:42:00,42.0,19.0,-100.00,NE,52,7.0,23.0,39,0.00,,,0.00,0.000000,,2013-02-15 12:42:00,
2013-02-15 05:11:00,41.0,18.0,-100.00,ENE,57,7.0,20.0,39,0.00,,,0.00,0.000000,,2013-02-15 13:11:00,
2013-02-15 05:21:00,41.0,18.0,-100.00,ENE,57,7.0,20.0,39,0.00,,,0.00,0.000000,,2013-02-15 13:21:00,
2013-02-15 05:31:00,41.0,18.0,-100.00,ENE,57,7.0,20.0,39,0.00,,,0.00,0.000000,,2013-02-15 13:31:00,
2013-02-15 05:41:00,41.0,18.0,-100.00,ENE,57,7.0,20.0,39,0.00,,,0.00,0.000000,,2013-02-15 13:41:00,
2013-02-15 05:51:00,41.0,18.0,-100.00,ENE,57,7.0,20.0,39,0.00,,,0.00,0.000000,,2013-02-15 13:51:00,
2013-02-15 05:52:00,40.0,18.0,-100.00,ENE,63,7.0,17.0,41,0.00,,,0.00,0.000000,,2013-02-15 13:52:00,
2013-02-15 06:21:00,40.0,18.0,-100.00,ENE,63,7.0,17.0,41,0.00,,,0.00,0.000000,,2013-02-15 14:21:00,
2013-02-15 06:32:00,40.0,18.0,-100.00,ENE,63,7.0,17.0,41,0.00,,,0.00,0.000000,,2013-02-15 14:32:00,
2013-02-15 06:41:00,40.0,18.0,-100.00,ENE,63,7.0,17.0,41,0.00,,,0.00,0.000000,,2013-02-15 14:41:00,
2013-02-15 07:21:00,40.0,16.0,-100.00,ENE,57,6.0,19.0,38,0.00,,,0.00,4.000000,,2013-02-15 15:21:00,
2013-02-15 07:32:00,40.0,16.0,-100.00,ENE,57,6.0,19.0,38,0.00,,,0.00,4.000000,,2013-02-15 15:32:00,
2013-02-15 07:41:00,40.0,16.0,-100.00,ENE,57,6.0,19.0,38,0.00,,,0.00,4.000000,,2013-02-15 15:41:00,
2013-02-15 07:51:00,40.0,16.0,-100.00,ENE,57,6.0,19.0,38,0.00,,,0.00,4.000000,,2013-02-15 15:51:00,
2013-02-15 08:22:00,42.0,17.0,-100.00,ENE,64,7.0,17.0,36,0.00,,,0.00,71.000000,,2013-02-15 16:22:00,
2013-02-15 08:31:00,42.0,17.0,-100.00,ENE,64,7.0,17.0,36,0.00,,,0.00,71.000000,,2013-02-15 16:31:00,
2013-02-15 08:42:00,42.0,17.0,-100.00,ENE,64,7.0,17.0,36,0.00,,,0.00,71.000000,,2013-02-15 16:42:00,
2013-02-15 08:51:00,42.0,17.0,-100.00,ENE,64,7.0,17.0,36,0.00,,,0.00,71.000000,,2013-02-15 16:51:00,
2013-02-15 08:52:00,45.0,17.0,-100.00,ENE,63,7.0,18.0,32,0.00,,,-99.99,240.000000,,2013-02-15 16:52:00,
2013-02-15 09:11:00,45.0,17.0,-100.00,ENE,63,7.0,18.0,32,0.00,,,-99.99,240.000000,,2013-02-15 17:11:00,
2013-02-15 09:21:00,45.0,17.0,-100.00,ENE,63,7.0,18.0,32,0.00,,,-99.99,240.000000,,2013-02-15 17:21:00,
2013-02-15 09:32:00,45.0,17.0,-100.00,ENE,63,7.0,18.0,32,0.00,,,-99.99,240.000000,,2013-02-15 17:32:00,
2013-02-15 09:41:00,45.0,17.0,-100.00,ENE,63,7.0,18.0,32,0.00,,,-99.99,240.000000,,2013-02-15 17:41:00,
2013-02-15 09:52:00,47.0,17.0,-100.00,ENE,60,7.0,17.0,30,0.00,,,0.00,506.000000,,2013-02-15 17:52:00,
2013-02-15 10:11:00,47.0,17.0,-100.00,ENE,60,7.0,17.0,30,0.00,,,0.00,506.000000,,2013-02-15 18:11:00,
2013-02-15 10:21:00,47.0,17.0,-100.00,ENE,60,7.0,17.0,30,0.00,,,0.00,506.000000,,2013-02-15 18:21:00,
2013-02-15 10:31:00,47.0,17.0,-100.00,ENE,60,7.0,17.0,30,0.00,,,0.00,506.000000,,2013-02-15 18:31:00,
2013-02-15 10:41:00,47.0,17.0,-100.00,ENE,60,7.0,17.0,30,0.00,,,0.00,506.000000,,2013-02-15 18:41:00,
2013-02-15 11:21:00,48.0,18.0,-100.00,NE,50,7.0,17.0,30,0.00,,,0.00,651.000000,,2013-02-15 19:21:00,
2013-02-15 11:32:00,48.0,18.0,-100.00,NE,50,7.0,17.0,30,0.00,,,0.00,651.000000,,2013-02-15 19:32:00,
2013-02-15 11:41:00,48.0,18.0,-100.00,NE,50,7.0,17.0,30,0.00,,,0.00,651.000000,,2013-02-15 19:41:00,
2013-02-15 11:51:00,48.0,18.0,-100.00,NE,50,7.0,17.0,30,0.00,,,0.00,651.000000,,2013-02-15 19:51:00,
2013-02-15 11:52:00,48.0,16.0,-100.00,ENE,65,7.0,15.0,28,0.00,,,0.00,550.000000,,2013-02-15 19:52:00,
2013-02-15 12:21:00,48.0,16.0,-100.00,ENE,65,7.0,15.0,28,0.00,,,0.00,550.000000,,2013-02-15 20:21:00,
2013-02-15 12:32:00,48.0,16.0,-100.00,ENE,65,7.0,15.0,28,0.00,,,0.00,550.000000,,2013-02-15 20:32:00,
2013-02-15 12:42:00,48.0,16.0,-100.00,ENE,65,7.0,15.0,28,0.00,,,0.00,550.000000,,2013-02-15 20:42:00,
2013-02-15 12:52:00,-999.0,-99.9,-100.00,NE,46,8.0,-999.0,-999,0.00,,,0.00,,,2013-02-15 20:52:00,
2013-02-15 13:11:00,-999.0,-99.9,-100.00,NE,46,8.0,-999.0,-999,0.00,,,0.00,,,2013-02-15 21:11:00,
2013-02-15 13:22:00,-999.0,-99.9,-100.00,NE,46,8.0,-999.0,-999,0.00,,,0.00,,,2013-02-15 21:22:00,
2013-02-15 13:32:00,-999.0,-99.9,-100.00,NE,46,8.0,-999.0,-999,0.00,,,0.00,,,2013-02-15 21:32:00,
2013-02-15 13:42:00,-999.0,-99.9,-100.00,NE,46,8.0,-999.0,-999,0.00,,,0.00,,,2013-02-15 21:42:00,
2013-02-15 14:21:00,49.0,14.0,-100.00,NE,46,7.0,18.0,24,0.00,,,0.00,785.000000,,2013-02-15 22:21:00,
2013-02-15 14:31:00,49.0,14.0,-100.00,NE,46,7.0,18.0,24,0.00,,,0.00,785.000000,,2013-02-15 22:31:00,
2013-02-15 14:41:00,49.0,14.0,-100.00,NE,46,7.0,18.0,24,0.00,,,0.00,785.000000,,2013-02-15 22:41:00,
2013-02-15 14:51:00,49.0,14.0,-100.00,NE,46,7.0,18.0,24,0.00,,,0.00,785.000000,,2013-02-15 22:51:00,
2013-02-15 14:52:00,49.0,13.0,-100.00,NE,44,7.0,15.0,23,0.00,,,0.00,677.000000,,2013-02-15 22:52:00,
2013-02-15 15:21:00,49.0,13.0,-100.00,NE,44,7.0,15.0,23,0.00,,,0.00,677.000000,,2013-02-15 23:21:00,
2013-02-15 15:31:00,49.0,13.0,-100.00,NE,44,7.0,15.0,23,0.00,,,0.00,677.000000,,2013-02-15 23:31:00,
2013-02-15 15:41:00,49.0,13.0,-100.00,NE,44,7.0,15.0,23,0.00,,,0.00,677.000000,,2013-02-15 23:41:00,
2013-02-15 16:11:00,50.0,13.0,-100.00,NE,45,6.0,18.0,22,0.00,,,0.00,567.000000,,2013-02-16 00:11:00,
2013-02-15 16:21:00,50.0,13.0,-100.00,NE,45,6.0,18.0,22,0.00,,,0.00,567.000000,,2013-02-16 00:21:00,
2013-02-15 16:32:00,50.0,13.0,-100.00,NE,45,6.0,18.0,22,0.00,,,0.00,567.000000,,2013-02-16 00:32:00,
2013-02-15 16:41:00,50.0,13.0,-100.00,NE,45,6.0,18.0,22,0.00,,,0.00,567.000000,,2013-02-16 00:41:00,
2013-02-15 16:51:00,50.0,13.0,-100.00,NE,45,6.0,18.0,22,0.00,,,0.00,567.000000,,2013-02-16 00:51:00,
2013-02-15 17:21:00,45.0,9.0,-100.00,ENE,61,5.0,12.0,23,0.00,,,-99.99,226.000000,,2013-02-16 01:21:00,
2013-02-15 17:31:00,45.0,9.0,-100.00,ENE,61,5.0,12.0,23,0.00,,,-99.99,226.000000,,2013-02-16 01:31:00,
2013-02-15 17:41:00,45.0,9.0,-100.00,ENE,61,5.0,12.0,23,0.00,,,-99.99,226.000000,,2013-02-16 01:41:00,
2013-02-15 17:51:00,45.0,9.0,-100.00,ENE,61,5.0,12.0,23,0.00,,,-99.99,226.000000,,2013-02-16 01:51:00,
2013-02-15 17:52:00,43.0,8.0,-100.00,NE,47,3.0,16.0,23,0.00,,,0.00,16.000000,,2013-02-16 01:52:00,
2013-02-15 18:21:00,43.0,8.0,-100.00,NE,47,3.0,16.0,23,0.00,,,0.00,16.000000,,2013-02-16 02:21:00,
2013-02-15 18:31:00,43.0,8.0,-100.00,NE,47,3.0,16.0,23,0.00,,,0.00,16.000000,,2013-02-16 02:31:00,
2013-02-15 18:42:00,43.0,8.0,-100.00,NE,47,3.0,16.0,23,0.00,,,0.00,16.000000,,2013-02-16 02:42:00,
2013-02-15 18:52:00,44.0,10.0,-100.00,ENE,57,6.0,14.0,24,0.00,,,0.00,0.000000,,2013-02-16 02:52:00,
2013-02-15 19:21:00,44.0,10.0,-100.00,ENE,57,6.0,14.0,24,0.00,,,0.00,0.000000,,2013-02-16 03:21:00,
2013-02-15 19:31:00,44.0,10.0,-100.00,ENE,57,6.0,14.0,24,0.00,,,0.00,0.000000,,2013-02-16 03:31:00,
2013-02-15 19:41:00,44.0,10.0,-100.00,ENE,57,6.0,14.0,24,0.00,,,0.00,0.000000,,2013-02-16 03:41:00,
2013-02-15 20:11:00,44.0,9.0,-100.00,NNE,27,6.0,16.0,23,0.00,,,0.00,0.000000,,2013-02-16 04:11:00,
2013-02-15 20:21:00,44.0,9.0,-100.00,NNE,27,6.0,16.0,23,0.00,,,0.00,0.000000,,2013-02-16 04:21:00,
2013-02-15 20:31:00,44.0,9.0,-100.00,NNE,27,6.0,16.0,23,0.00,,,0.00,0.000000,,2013-02-16 04:31:00,
2013-02-15 20:41:00,44.0,9.0,-100.00,NNE,27,6.0,16.0,23,0.00,,,0.00,0.000000,,2013-02-16 04:41:00,
2013-02-15 20:51:00,44.0,9.0,-100.00,NNE,27,6.0,16.0,23,0.00,,,0.00,0.000000,,2013-02-16 04:51:00,
2013-02-15 20:52:00,44.0,10.0,-100.00,NE,42,5.0,16.0,24,0.00,,,0.00,0.000000,,2013-02-16 04:52:00,
2013-02-15 21:21:00,44.0,10.0,-100.00,NE,42,5.0,16.0,24,0.00,,,0.00,0.000000,,2013-02-16 05:21:00,
2013-02-15 21:31:00,44.0,10.0,-100.00,NE,42,5.0,16.0,24,0.00,,,0.00,0.000000,,2013-02-16 05:31:00,
2013-02-15 21:42:00,44.0,10.0,-100.00,NE,42,5.0,16.0,24,0.00,,,0.00,0.000000,,2013-02-16 05:42:00,
2013-02-15 22:11:00,45.0,9.0,-100.00,NE,46,5.0,17.0,23,0.00,,,0.00,0.000000,,2013-02-16 06:11:00,
2013-02-15 22:21:00,45.0,9.0,-100.00,NE,46,5.0,17.0,23,0.00,,,0.00,0.000000,,2013-02-16 06:21:00,
2013-02-15 22:32:00,45.0,9.0,-100.00,NE,46,5.0,17.0,23,0.00,,,0.00,0.000000,,2013-02-16 06:32:00,
2013-02-15 22:41:00,45.0,9.0,-100.00,NE,46,5.0,17.0,23,0.00,,,0.00,0.000000,,2013-02-16 06:41:00,
2013-02-15 22:51:00,45.0,9.0,-100.00,NE,46,5.0,17.0,23,0.00,,,0.00,0.000000,,2013-02-16 06:51:00,
2013-02-15 22:52:00,44.0,8.0,-100.00,ENE,67,5.0,24.0,22,0.00,,,0.00,0.000000,,2013-02-16 06:52:00,
2013-02-15 23:21:00,44.0,8.0,-100.00,ENE,67,5.0,24.0,22,0.00,,,0.00,0.000000,,2013-02-16 07:21:00,
2013-02-15 23:31:00,44.0,8.0,-100.00,ENE,67,5.0,24.0,22,0.00,,,0.00,0.000000,,2013-02-16 07:31:00,
2013-02-15 23:42:00,44.0,8.0,-100.00,ENE,67,5.0,24.0,22,0.00,,,0.00,0.000000,,2013-02-16 07:42:00,
2013-02-15 23:52:00,44.0,8.0,-100.00,NE,43,5.0,16.0,22,0.00,,,0.00,0.000000,,2013-02-16 07:52:00,